Lapse_Rate
2.4 5.8 8.1 8.5 6.5 6.5 6.5 6.5 6.5 6.5 6.5 7.1 7.4 6.8 6.6 6.8 6.5 6.5 8.9 9.1 9.3 5.8 3.5 1.4 0.4 0.8 0.9 1.0 1.0 1.2 1.5 1.8 2.1 2.4 2.8 2.9 3.0 3.0 3.2 3.4 3.7 4.1 4.6 4.9 4.9 5.1 5.4 5.3 5.0
5.0 8.8 9.0 7.6 6.5 6.5 6.5 6.5 6.5 6.5 6.8 7.4 7.3 7.1 6.7 6.5 7.8 8.0 8.2 9.0 9.5 7.4 4.4 3.5 0.3 1.0 1.1 1.1 1.1 1.2 1.6 1.9 2.2 2.5 2.8 3.1 3.2 3.3 3.4 3.6 3.9 4.4 4.8 5.1 5.3 5.4 5.4 5.2 4.8
5.2 8.3 7.5 6.5 6.5 6.5 6.5 6.5 6.5 6.6 7.3 7.1 6.8 7.6 7.2 6.8 8.0 8.3 8.8 9.3 9.4 9.1 6.7 4.4 0.7 1.1 1.4 1.2 1.3 1.5 1.8 2.0 2.3 2.7 2.9 3.1 3.4 3.5 3.6 3.7 4.1 4.6 5.2 5.3 5.7 5.7 5.5 5.1 4.9
8.5 8.4 7.8 6.5 6.5 6.5 6.5 6.5 6.5 6.5 7.1 7.4 7.3 6.5 7.7 8.1 8.3 8.8 9.4 9.5 9.3 9.4 7.8 0.2 1.1 1.2 1.7 1.4 1.4 1.6 1.9 2.0 2.3 2.7 3.0 3.3 3.5 3.6 3.6 3.7 4.1 4.7 5.3 5.5 5.7 5.6 5.2 4.9 4.9
9.0 7.8 6.5 6.5 6.5 6.5 6.5 6.7 6.9 6.5 6.6 6.9 7.2 6.6 6.9 8.3 9.1 9.0 9.2 9.3 9.1 8.9 4.3 2.9 1.1 1.4 1.6 1.7 1.7 1.9 2.1 2.3 2.6 2.9 3.1 3.4 3.6 3.7 3.7 3.8 4.2 4.6 5.1 5.2 5.4 5.4 4.9 4.6 4.5
7.3 7.3 6.5 6.5 6.5 6.5 6.5 6.9 6.8 6.6 6.9 7.1 6.9 6.8 7.1 8.4 8.6 8.9 9.1 9.0 9.2 7.5 5.6 3.4 2.0 1.7 1.5 2.1 2.0 2.0 2.1 2.3 2.6 2.9 3.1 3.3 3.4 3.5 3.6 3.8 4.3 4.8 5.1 5.1 5.1 5.0 4.8 4.5 4.4
6.7 6.5 6.5 6.5 6.5 6.5 6.5 7.2 6.5 6.6 6.7 6.8 7.5 6.5 7.4 8.0 8.2 8.9 9.0 8.0 8.7 8.5 6.3 5.1 3.9 2.7 1.8 2.2 2.2 2.0 2.2 2.4 2.6 2.8 3.1 3.1 3.2 3.4 3.6 3.8 4.1 4.8 5.0 5.1 5.3 4.9 4.6 4.6 4.4
7.5 6.5 6.5 6.5 6.5 6.5 6.7 6.9 7.3 6.9 6.7 8.0 8.0 6.5 6.7 7.8 8.5 8.8 8.6 7.2 7.8 8.0 8.2 6.2 4.7 3.6 3.1 2.4 2.2 2.3 2.4 2.5 2.6 2.8 2.9 3.1 3.3 3.5 3.7 3.9 4.2 4.7 5.2 5.0 4.8 4.7 4.5 4.5 4.5
8.1 6.5 6.5 6.5 6.5 6.5 6.9 6.5 7.4 7.8 7.2 7.5 7.8 7.7 8.0 8.5 8.9 8.2 8.2 7.4 7.1 7.4 8.4 8.2 6.2 4.7 4.3 4.4 3.0 2.1 2.5 2.6 2.7 2.8 2.9 2.8 4.0 3.8 4.2 4.4 5.1 4.8 4.8 4.9 4.9 4.6 4.4 4.4 4.5
6.7 6.5 6.5 6.5 6.5 6.5 6.7 6.7 7.0 6.9 6.8 6.9 7.3 8.1 8.4 8.6 8.4 7.7 7.7 7.2 7.2 6.4 7.0 7.0 6.1 6.8 5.6 6.5 4.3 4.1 4.1 3.9 3.9 4.3 3.2 4.3 5.4 5.6 6.5 5.8 5.3 4.8 4.9 4.8 4.4 4.5 4.5 4.4 5.6
6.8 6.5 6.5 6.7 7.1 7.2 6.7 6.7 7.4 6.7 6.5 6.9 6.8 7.5 8.1 8.1 7.8 7.7 7.3 7.7 7.5 7.3 6.6 5.1 4.6 5.3 5.4 7.3 6.1 5.6 5.5 5.4 5.3 5.6 5.3 5.2 6.4 7.6 7.1 7.2 5.8 5.0 4.1 4.6 3.5 3.4 4.4 5.5 6.2
6.5 6.8 6.9 7.0 7.3 7.0 6.5 7.2 6.7 7.0 6.9 7.8 7.8 7.8 8.0 7.9 7.7 7.9 7.7 7.7 7.1 7.7 6.9 6.1 5.1 4.5 5.3 6.4 7.3 7.4 7.0 5.8 5.9 6.1 6.1 5.6 5.9 6.3 6.5 7.3 6.6 6.0 5.8 5.3 6.3 6.0 5.8 6.2 7.0
6.5 6.5 7.0 7.2 7.2 7.1 7.3 6.7 6.7 6.9 7.8 8.1 8.1 8.0 7.7 7.8 8.1 8.2 7.9 7.6 7.5 8.0 5.8 5.1 6.1 5.6 5.2 6.0 7.4 6.8 7.6 7.3 7.1 7.0 6.7 6.6 6.9 6.5 7.1 6.8 6.8 6.4 6.2 5.5 5.7 6.5 6.7 6.9 7.0
6.9 6.9 6.8 7.1 7.0 7.1 6.6 6.6 6.9 7.1 7.9 7.8 7.8 7.7 7.7 7.7 8.0 8.1 7.6 7.4 7.5 7.2 6.9 5.6 6.9 6.2 6.9 6.1 6.8 7.2 7.3 6.8 6.7 6.8 7.8 7.4 7.3 6.8 7.2 7.0 6.9 6.5 6.7 6.2 5.4 7.2 7.5 6.6 6.4
7.1 6.5 6.5 6.6 6.8 6.6 7.1 6.5 6.5 7.4 7.7 7.4 7.6 7.6 7.8 7.7 8.1 7.9 7.9 7.7 7.5 7.9 7.2 6.0 5.9 6.9 5.4 7.0 6.8 6.6 7.2 7.6 7.1 6.8 6.3 6.9 7.8 6.5 6.8 6.6 6.5 6.2 7.0 6.0 5.2 6.3 6.8 6.7 6.4
6.5 6.5 6.5 6.5 6.5 6.7 6.7 6.5 6.5 7.4 7.2 7.0 7.3 7.5 7.7 7.9 8.1 8.2 8.1 7.9 8.3 7.8 6.9 6.9 6.5 4.8 4.9 5.4 7.1 7.4 7.2 6.9 7.2 6.8 6.8 6.0 6.9 7.2 6.4 6.1 5.6 6.3 6.0 5.9 5.4 5.4 5.7 6.4 5.9
6.5 6.5 6.5 6.5 6.5 6.5 6.5 6.5 6.5 7.3 7.1 6.9 7.1 7.3 7.5 7.7 8.0 8.0 8.1 8.0 8.2 8.4 7.8 7.9 7.0 6.1 4.7 4.6 4.8 5.7 7.2 7.2 7.4 7.1 7.0 6.4 6.4 7.7 6.9 6.1 5.6 4.9 5.6 5.6 5.9 5.8 5.8 6.1 5.9
6.5 6.5 6.5 6.5 6.5 6.5 6.5 6.5 6.5 7.0 7.0 6.8 7.0 7.2 7.3 7.5 7.8 7.8 8.3 8.3 8.9 8.5 8.8 8.6 8.2 7.8 6.9 5.6 4.9 5.0 5.6 7.5 7.6 7.6 7.6 6.5 7.0 7.1 7.1 6.9 5.0 5.2 4.6 4.9 5.8 6.0 5.6 6.1 5.7
6.5 6.5 6.5 6.5 6.5 6.5 6.5 6.5 6.5 6.6 6.8 6.6 6.9 7.0 7.2 7.4 7.9 8.2 8.5 8.5 8.7 8.5 8.6 8.7 8.7 8.5 8.0 7.4 6.7 6.8 6.3 6.5 6.9 7.6 7.2 7.1 7.0 7.0 7.0 6.9 5.9 4.9 4.9 4.4 5.0 5.8 5.6 5.1 5.7
6.5 6.5 6.5 6.5 6.5 6.5 6.5 6.5 6.5 6.5 6.5 6.8 6.9 6.9 7.1 7.4 7.8 8.1 8.4 8.3 8.3 8.5 8.3 8.7 8.7 8.4 8.1 8.4 7.4 6.4 5.6 4.9 5.4 4.7 5.4 7.2 7.0 6.7 7.0 7.1 6.9 5.8 4.8 4.5 4.7 5.6 4.6 5.4 5.7
6.5 6.5 6.5 6.5 6.5 6.5 6.5 6.5 6.5 6.5 6.7 7.0 7.1 7.3 7.3 7.2 7.5 7.9 8.2 8.2 8.4 8.3 8.2 8.7 8.7 8.2 7.8 8.0 7.3 7.8 7.3 6.6 5.7 6.0 6.3 7.0 6.4 6.8 6.5 6.6 6.7 6.1 5.7 5.2 4.5 5.5 4.9 4.9 6.3
6.5 6.5 6.5 6.5 6.5 6.5 6.5 6.5 6.5 6.5 6.5 6.5 6.7 6.8 7.2 7.5 7.9 8.1 8.2 8.2 8.4 8.0 8.1 8.4 8.3 8.1 8.2 6.2 5.5 5.9 6.7 6.6 6.1 5.3 5.3 5.6 6.8 6.9 6.6 6.3 6.9 5.2 5.9 5.5 4.8 5.7 4.8 6.0 6.8
6.5 6.5 6.5 6.5 6.5 6.5 6.5 6.5 6.5 6.5 6.5 6.5 6.5 7.0 7.3 7.6 7.8 7.9 8.1 8.4 8.6 8.3 8.3 8.3 8.3 8.2 7.5 6.1 5.4 4.6 4.2 4.6 4.5 3.6 2.8 2.9 4.2 6.8 6.8 6.2 6.3 6.5 6.6 6.3 5.2 5.6 5.8 5.7 5.8
6.5 6.5 6.5 6.5 6.5 6.5 6.5 6.5 6.5 6.5 6.5 6.5 6.5 7.0 7.3 7.6 7.9 8.1 8.4 8.6 8.6 8.5 8.4 8.5 8.6 8.6 7.3 5.4 4.6 4.5 5.0 4.0 3.2 3.1 3.2 2.5 2.8 4.8 6.6 6.5 5.7 4.8 6.0 6.3 6.0 6.5 6.0 6.5 5.9
6.5 6.5 6.5 6.5 6.5 6.5 6.5 6.5 6.5 6.5 6.5 6.5 6.5 6.9 7.4 7.7 7.8 7.9 8.1 8.3 8.4 8.4 8.5 8.6 8.5 7.8 6.9 6.0 4.8 4.1 3.7 3.5 2.9 3.1 3.7 3.5 3.3 2.6 4.9 7.0 6.7 5.3 5.5 6.1 6.3 6.5 6.1 6.4 7.0
6.5 6.5 6.5 6.5 6.5 6.5 6.5 6.5 6.5 6.5 6.6 6.9 7.1 7.3 7.5 7.6 7.8 7.9 8.1 8.3 8.4 8.5 8.4 8.4 7.4 5.9 4.8 4.6 3.6 3.3 3.1 3.3 3.0 3.0 4.2 4.7 4.1 4.2 4.6 7.1 6.7 6.2 5.9 6.0 5.9 6.1 6.4 6.1 6.1
6.5 6.5 6.5 6.5 6.5 6.5 6.5 6.5 6.5 6.5 6.5 6.6 6.8 7.1 7.2 7.5 7.7 7.9 8.2 8.3 8.4 8.4 8.4 8.1 7.9 6.1 4.9 4.2 3.4 2.5 2.3 2.4 2.9 3.5 3.8 3.5 4.1 3.5 3.5 4.9 6.9 5.0 6.0 5.7 6.0 6.0 6.1 5.9 5.4
6.5 6.5 6.5 6.5 6.5 6.5 6.5 6.5 6.5 6.5 6.5 6.5 6.5 6.7 7.2 7.6 7.8 8.0 8.2 8.3 8.5 8.6 8.7 8.5 8.1 7.3 5.5 4.9 3.9 3.5 3.4 3.0 3.5 3.8 3.1 3.0 3.3 3.2 2.5 3.7 7.3 6.4 6.1 5.5 5.5 5.9 6.1 5.1 5.6
6.5 6.5 6.5 6.5 6.5 6.5 6.5 6.5 6.5 6.5 6.5 6.5 6.5 7.0 7.2 7.5 7.7 8.0 8.3 8.4 8.6 8.6 8.8 8.5 7.1 5.8 4.8 4.1 3.9 3.8 4.1 3.5 3.6 3.7 2.7 2.5 3.7 3.4 2.3 2.9 6.7 6.8 6.0 5.4 5.1 6.2 5.7 5.8 5.8
6.5 6.5 6.5 6.5 6.5 6.5 6.5 6.5 6.5 6.5 6.5 6.6 6.7 7.1 7.5 7.7 7.8 8.1 8.3 8.4 8.6 8.7 8.7 8.0 6.1 5.1 4.3 3.5 3.9 3.6 3.4 2.6 2.8 2.1 1.1 1.1 1.6 3.8 3.4 4.3 7.2 7.2 5.3 5.1 6.1 5.9 5.9 5.8 5.5
Wind_Speed
14 14 8 9 6 7 15 17 6 5 4 10 7 5 10 9 8 5 12 9 7 13 15 17 15 14 14 15 15 17 17 17 16 16 15 15 15 15 13 12 12 11 11 11 11 9 9 7 6
13 16 8 6 8 10 13 6 6 15 14 8 0 5 7 5 6 5 10 13 7 15 14 15 13 14 14 14 15 16 18 18 17 16 16 15 15 14 14 14 13 11 10 11 9 9 9 6 6
11 17 7 5 10 13 14 4 7 12 6 2 1 3 6 3 12 6 12 9 5 4 16 16 15 13 13 13 14 15 17 17 18 17 16 16 16 14 14 14 13 10 11 11 8 7 7 5 6
6 5 6 8 16 18 20 14 10 8 7 5 5 7 3 8 2 7 9 8 3 2 14 23 19 12 12 13 15 16 17 19 19 19 17 16 16 16 15 16 15 12 11 9 8 6 6 5 5
7 7 11 14 19 19 17 18 9 5 4 9 5 10 8 10 6 9 7 8 4 0 12 19 23 16 13 14 15 15 16 17 17 18 17 16 16 16 14 15 15 13 12 12 9 8 8 7 6
7 9 11 14 18 18 14 7 2 5 8 11 10 12 8 11 8 4 6 6 5 8 12 13 15 17 14 14 16 16 16 17 17 18 18 18 18 17 17 17 15 14 12 10 9 9 8 8 8
11 10 16 19 19 20 21 14 3 6 9 11 9 4 4 7 9 4 3 6 2 5 12 11 12 12 13 16 17 16 16 16 17 18 18 18 19 19 18 18 16 16 14 11 10 9 8 9 9
10 9 18 17 17 20 21 3 7 7 9 5 6 3 7 8 7 4 5 7 4 3 3 11 10 12 11 11 14 16 16 16 16 16 17 17 18 17 17 17 16 16 14 14 12 10 9 9 9
13 6 12 20 19 19 16 12 5 6 4 12 7 10 11 11 8 6 4 3 7 4 5 4 11 10 11 12 12 12 13 15 16 15 14 14 11 13 15 16 18 18 17 15 12 11 10 10 9
14 11 18 19 19 18 15 17 16 14 12 12 10 11 6 11 8 7 7 7 6 12 8 6 5 10 10 10 13 12 12 10 10 12 13 12 13 15 16 18 19 19 17 14 11 11 11 10 10
17 18 18 19 21 21 19 17 17 19 17 15 11 13 14 9 8 6 9 8 9 5 9 11 9 4 3 7 7 8 9 10 11 13 13 13 12 11 14 11 15 11 14 9 10 9 9 11 11
21 21 20 22 21 19 20 22 21 19 18 15 15 11 12 11 9 6 10 10 7 5 8 12 11 10 6 5 4 8 8 7 6 11 14 9 5 6 5 5 11 11 12 9 10 10 13 13 13
20 21 21 22 20 19 22 20 22 22 20 18 16 12 10 9 9 10 10 8 6 1 7 6 9 12 11 11 8 6 7 8 7 12 16 14 8 6 6 5 6 9 13 11 7 6 7 8 8
22 24 24 18 19 21 23 22 19 19 18 20 15 14 13 12 11 12 8 8 5 7 7 4 1 9 10 10 11 7 4 7 8 6 7 18 9 8 6 7 7 7 12 13 8 6 6 5 4
18 20 22 23 24 25 23 27 25 21 21 20 20 15 14 10 11 9 11 6 7 5 8 9 8 4 5 8 7 7 5 6 8 8 13 11 14 7 8 5 6 5 12 11 7 5 5 5 5
24 24 21 18 22 25 24 27 18 18 15 12 14 12 14 12 10 11 8 7 6 8 10 8 8 9 8 7 5 4 5 5 6 6 10 16 14 16 6 6 5 4 4 8 7 5 4 4 5
16 20 24 28 23 21 16 22 14 13 7 5 9 10 12 10 11 8 10 8 9 10 8 7 8 8 9 8 6 6 7 5 6 6 6 12 15 15 10 9 9 6 4 4 7 7 7 5 4
19 19 23 24 21 16 19 20 17 18 17 10 11 12 11 10 11 13 11 10 8 8 6 6 6 7 7 6 6 4 5 7 7 7 8 7 11 14 11 8 10 10 5 5 4 7 5 5 6
22 25 28 26 26 27 22 20 17 15 17 15 15 16 14 12 12 14 10 9 7 7 7 8 6 6 5 5 6 6 4 6 4 8 9 9 9 14 13 10 9 10 11 12 9 5 6 4 5
27 28 28 25 26 22 25 24 22 20 20 18 19 15 14 14 14 13 11 9 8 6 7 7 9 9 7 7 8 7 8 7 8 9 11 13 9 12 13 12 10 12 10 13 13 7 4 5 5
25 25 25 29 26 27 23 24 22 20 24 22 19 14 5 12 16 12 7 9 6 5 6 9 9 10 9 9 8 7 8 8 8 6 8 8 7 10 16 13 12 10 9 10 13 12 11 9 7
22 21 26 25 20 16 22 18 22 20 22 20 24 12 16 14 12 9 8 8 6 7 8 9 10 10 10 11 10 11 9 10 9 10 11 11 11 15 15 16 13 13 10 12 13 11 12 10 10
23 22 18 21 14 21 23 16 15 23 20 16 16 20 16 13 10 9 9 6 7 9 9 9 11 11 11 12 11 9 10 9 10 11 17 16 14 14 14 16 14 13 10 13 14 15 15 12 11
15 17 20 21 13 15 25 18 17 19 16 10 22 18 15 12 10 7 7 8 9 9 9 8 10 12 13 13 12 12 13 14 11 12 12 12 12 12 13 17 16 14 14 13 13 15 16 15 13
14 13 7 4 7 15 18 16 16 15 20 20 19 15 13 12 9 7 10 10 11 11 11 11 12 13 13 14 14 14 14 15 16 14 11 14 13 13 14 15 16 14 14 14 14 15 16 17 14
9 10 6 6 7 13 10 10 4 13 14 17 16 14 12 12 8 9 10 10 12 13 14 14 14 15 16 16 15 14 14 10 11 13 12 13 13 14 18 12 16 17 15 15 14 13 13 16 13
12 14 17 6 13 11 11 6 7 13 14 13 12 12 10 9 9 10 11 12 12 13 14 15 15 15 16 16 14 15 14 15 14 17 16 13 17 16 19 20 14 15 16 17 17 13 15 13 15
8 2 3 2 4 10 13 12 6 8 9 8 10 9 8 10 12 12 12 12 11 12 12 13 13 14 15 16 14 14 16 16 16 15 17 18 18 20 21 20 18 17 16 17 17 16 16 14 11
10 11 7 4 5 4 6 4 6 9 7 7 5 6 9 12 12 12 12 12 13 13 13 13 13 15 15 14 15 16 15 15 14 14 15 17 19 22 21 21 20 18 17 17 15 17 16 17 15
6 9 12 9 11 8 9 10 8 10 8 4 4 5 9 10 11 11 12 12 13 14 14 13 13 14 14 15 15 15 15 15 14 13 15 16 20 15 20 20 21 19 20 17 18 17 14 15 15
Wind_Direction
290 257 247 263 249 225 264 263 294 97 148 68 27 343 342 325 332 51 97 59 31 133 146 153 142 141 139 141 146 151 151 149 149 148 147 144 143 142 142 145 149 145 152 156 161 169 182 186 189
286 280 251 276 249 268 262 272 64 62 75 86 150 266 247 274 16 36 21 21 23 138 142 150 143 144 146 147 147 149 154 153 153 151 149 148 148 148 152 160 167 170 171 156 169 182 187 180 190
268 268 273 231 236 255 279 48 53 59 53 4 342 178 294 40 49 15 12 354 35 164 139 143 146 152 154 148 146 149 152 153 153 153 154 154 154 157 161 168 174 180 166 157 176 182 188 188 193
259 221 250 263 264 276 286 317 97 133 158 172 300 287 113 93 70 46 358 351 89 219 138 139 144 157 154 147 148 152 155 155 156 156 158 160 161 165 169 174 178 180 174 172 181 177 172 184 193
247 276 253 264 267 265 268 272 104 204 298 299 265 267 295 149 110 49 17 358 347 179 104 144 145 156 158 154 149 153 157 158 160 159 161 163 166 170 174 182 183 185 182 181 189 192 178 174 185
257 244 271 266 271 274 288 70 91 279 272 260 245 249 265 116 86 34 53 26 340 120 122 132 141 147 159 155 153 158 159 162 166 165 166 167 170 175 177 184 188 196 194 193 197 191 187 187 192
255 276 265 280 288 295 299 20 16 308 296 281 317 212 268 108 81 14 346 95 5 322 134 139 157 154 156 166 163 161 164 167 171 173 173 172 175 180 182 185 190 201 195 204 211 202 193 191 194
252 281 270 266 274 284 294 11 24 323 290 42 352 211 235 66 38 357 315 129 145 245 138 139 150 161 166 168 168 167 170 171 175 176 178 179 181 183 186 189 195 204 207 209 206 205 196 198 202
251 245 251 256 262 275 333 334 331 341 320 311 293 256 288 335 331 304 287 236 147 174 180 180 157 166 171 173 171 165 171 175 174 173 177 176 184 186 188 195 201 209 210 212 210 206 199 200 207
220 235 245 262 282 295 311 308 321 312 282 234 252 268 259 270 292 327 316 300 194 171 188 143 118 163 173 183 160 181 179 185 187 182 170 187 201 183 196 196 210 207 209 212 203 202 202 202 208
235 244 260 274 288 303 301 292 292 287 275 274 269 270 291 318 327 328 303 282 275 260 159 142 137 155 198 219 161 179 183 188 193 192 182 198 199 208 197 192 195 189 198 200 190 186 197 209 227
256 255 261 272 277 284 284 293 286 280 280 281 286 295 290 275 268 278 268 279 299 353 169 159 157 158 184 238 207 182 188 186 186 202 195 186 213 206 185 191 181 186 186 197 201 196 194 211 218
269 268 272 274 269 268 274 265 272 274 280 283 279 271 273 272 268 264 263 280 296 265 110 151 190 171 173 221 221 218 196 181 191 189 195 203 195 211 202 195 190 189 196 185 200 200 194 204 206
284 288 287 281 281 275 271 263 261 264 267 266 259 264 251 251 253 265 279 266 239 31 27 112 158 197 190 196 226 224 202 179 195 214 207 197 208 198 209 197 201 184 192 191 191 200 205 192 181
269 275 276 265 266 266 262 261 255 259 258 255 260 238 240 224 222 244 257 262 57 41 27 34 18 47 276 203 231 249 271 225 190 188 205 235 211 220 201 195 206 202 186 189 188 200 172 188 189
275 274 272 266 264 254 234 258 266 269 266 257 233 254 252 245 211 216 241 71 49 33 39 26 26 358 347 347 259 206 238 263 228 193 189 202 221 218 203 204 230 246 194 180 189 182 188 206 179
250 264 267 278 264 260 204 259 269 237 254 234 253 246 226 210 212 207 99 73 46 35 27 10 20 5 346 341 337 323 283 233 247 220 205 199 217 207 220 200 213 230 265 188 183 194 187 193 179
268 266 271 278 282 270 241 244 245 266 267 232 236 249 259 232 213 98 82 59 43 43 18 28 21 357 342 316 303 289 285 257 235 236 219 207 204 215 200 218 189 196 222 243 240 184 189 173 179
264 269 276 281 288 297 293 284 276 256 272 263 233 223 232 252 112 100 87 78 43 46 26 11 350 2 351 328 327 321 300 297 259 226 234 215 208 202 214 207 183 190 197 218 232 192 184 194 188
275 276 279 280 282 276 277 276 275 272 269 254 247 230 214 213 123 104 86 73 47 19 27 359 3 2 356 343 340 315 306 297 296 303 297 221 229 207 203 209 199 193 198 202 217 214 164 173 192
263 269 277 278 280 284 286 275 261 261 257 252 239 230 133 119 99 95 80 63 48 24 18 0 1 352 351 347 328 322 318 308 298 277 276 254 233 218 210 210 209 193 207 201 212 206 193 192 194
264 278 294 297 291 290 280 275 269 266 265 230 220 132 93 83 76 72 56 40 5 36 22 0 357 348 346 352 339 328 313 300 300 301 301 304 282 233 213 217 212 204 199 207 210 209 204 191 194
278 279 281 297 308 281 277 276 261 275 268 177 127 105 99 93 77 52 47 25 18 31 17 6 348 344 349 347 337 328 313 310 314 307 306 300 296 283 220 203 209 206 209 212 204 209 204 202 199
304 306 263 262 244 262 258 264 269 263 283 189 99 108 110 91 70 48 42 22 16 24 10 359 352 344 343 339 329 321 309 301 298 293 292 294 292 287 269 208 204 202 205 218 207 211 207 208 205
291 281 286 269 241 254 259 254 259 33 75 104 120 110 89 75 66 46 29 14 13 8 1 357 356 342 338 331 325 321 312 302 291 288 283 281 283 283 272 244 214 203 197 207 211 205 207 209 207
262 280 211 265 261 271 314 283 163 97 83 89 90 93 88 76 59 47 28 21 9 4 2 358 352 341 335 329 323 315 305 295 287 281 279 275 273 275 281 267 226 217 200 204 216 218 207 203 208
258 238 249 286 280 279 253 195 111 95 85 76 86 84 69 58 46 33 24 24 9 7 2 2 354 341 332 326 320 312 303 293 287 280 272 270 269 269 271 273 235 217 205 206 206 210 219 204 203
245 337 225 191 252 251 254 260 85 167 108 88 84 67 51 38 27 23 22 22 15 10 1 357 351 341 331 323 318 308 301 290 284 281 275 264 261 261 261 258 252 221 206 208 202 210 210 196 205
215 234 223 240 231 303 309 308 69 97 114 127 78 59 38 32 22 12 13 16 14 6 1 356 348 339 330 322 316 308 306 300 294 289 283 276 266 252 245 246 248 217 209 205 202 210 205 205 203
292 246 251 241 253 261 276 288 132 154 156 104 86 68 44 37 25 13 8 13 7 0 357 351 351 338 331 326 319 316 313 315 308 307 305 300 291 240 233 237 237 214 204 199 203 206 205 208 197